TimeMST,TemperatureF,Dew PointF,Humidity,Sea Level PressureIn,VisibilityMPH,Wind Direction,Wind SpeedMPH,Gust SpeedMPH,PrecipitationIn,Events,Conditions,WindDirDegrees,DateUTC
12:53 AM,21.9,19.0,89,30.13,10.0,Calm,Calm,-,N/A,,Clear,0,2013-12-01 07:53:00
1:53 AM,24.1,19.9,84,30.11,10.0,WSW,3.5,-,N/A,,Clear,240,2013-12-01 08:53:00
2:53 AM,21.9,18.0,85,30.11,10.0,SSW,8.1,-,N/A,,Clear,210,2013-12-01 09:53:00
3:53 AM,21.0,18.0,88,30.11,10.0,WNW,3.5,-,N/A,,Clear,290,2013-12-01 10:53:00
4:53 AM,21.9,19.0,89,30.12,10.0,WNW,5.8,-,N/A,,Clear,300,2013-12-01 11:53:00
5:53 AM,24.1,19.9,84,30.13,10.0,SSW,4.6,-,N/A,,Clear,210,2013-12-01 12:53:00
6:53 AM,21.9,18.0,85,30.15,10.0,West,4.6,-,N/A,,Clear,270,2013-12-01 13:53:00
7:53 AM,26.1,21.0,81,30.17,10.0,West,8.1,-,N/A,,Clear,280,2013-12-01 14:53:00
8:53 AM,33.1,24.1,70,30.14,10.0,WSW,9.2,-,N/A,,Clear,250,2013-12-01 15:53:00
9:53 AM,39.9,24.1,53,30.15,10.0,WNW,11.5,-,N/A,,Clear,290,2013-12-01 16:53:00
10:53 AM,46.9,24.1,41,30.12,10.0,West,8.1,-,N/A,,Clear,280,2013-12-01 17:53:00
11:53 AM,53.1,23.0,31,30.07,10.0,WNW,9.2,-,N/A,,Clear,290,2013-12-01 18:53:00
12:53 PM,57.0,21.9,26,30.02,10.0,WSW,5.8,-,N/A,,Clear,250,2013-12-01 19:53:00
1:53 PM,60.1,19.9,21,29.98,9.0,West,8.1,-,N/A,,Clear,280,2013-12-01 20:53:00
2:53 PM,60.1,19.9,21,29.96,10.0,WSW,6.9,-,N/A,,Clear,240,2013-12-01 21:53:00
3:53 PM,55.9,21.9,27,29.96,10.0,SSW,8.1,-,N/A,,Clear,210,2013-12-01 22:53:00
4:53 PM,41.0,23.0,49,29.98,10.0,SSW,10.4,-,N/A,,Clear,200,2013-12-01 23:53:00
5:53 PM,37.9,24.1,57,29.98,10.0,South,9.2,-,N/A,,Clear,190,2013-12-02 00:53:00
6:53 PM,35.1,24.1,64,29.95,10.0,SSW,10.4,-,N/A,,Clear,210,2013-12-02 01:53:00
7:53 PM,33.1,23.0,66,29.92,10.0,SSW,10.4,-,N/A,,Clear,210,2013-12-02 02:53:00
8:53 PM,30.9,21.9,69,29.91,10.0,SSW,3.5,-,N/A,,Clear,210,2013-12-02 03:53:00
9:53 PM,30.0,21.9,72,29.87,10.0,SSW,8.1,-,N/A,,Clear,210,2013-12-02 04:53:00
10:53 PM,28.0,21.0,75,29.83,10.0,SSW,9.2,-,N/A,,Clear,210,2013-12-02 05:53:00
11:53 PM,34.0,23.0,64,29.79,10.0,WSW,8.1,-,N/A,,Clear,250,2013-12-02 06:53:00